Flag for Nepal Weather past 2 weeks in Kathmandu, Nepal

Now
73 °F

Rain. Broken clouds.


Feels Like: 74 °F
Forecast: 63 / 76 °F
Wind: 9 mph from Northwest

Location: Kathmandu Airport

Current Time: Aug 1, 2015 at 5:55:42 PM

Latest Report: Aug 1, 2015 at 4:35 PM


Visibility: 4 mi

Pressure: 29.86 "Hg (25.69 "Hg at 1305m altitude)

Humidity: 78%

Dew point: 66 °F

Historic Weather in Kathmandu — Graph

°F

Kathmandu temperature yesterday

Maximum temperature yesterday: 73 °F (at 10:35 AM)
Minimum temperature yesterday: 66 °F (at 12:35 AM)
Average temperature yesterday: 69 °F

Past Weeks' High & Low Weather Summary

 TemperatureHumidityPressure
High86 °F (Jul 27, 1:35 PM)100% (Jul 17, 8:35 PM)29.98 "Hg (Jul 17, 8:35 PM)
Low66 °F (Jul 25, 7:35 PM)49% (Jul 27, 1:35 PM)29.68 "Hg (Jul 17, 4:35 PM)
Average73 °F85%29.84 "Hg
* Reported Jul 17 4:35 PM — Aug 1 4:35 PM, Kathmandu, Weather by CustomWeather, © 2015

Note: Actual official high and low records may vary slightly from our data, if they occured in-between our weather recording intervals... More about our weather records

Advertising

Kathmandu weather history for previous 24 hours

 ConditionsComfort  
Time TempWeatherWind HumidityBarometerVisibility
4:35 PM
Sat, Aug 1
73 °FRain. Broken clouds.9 mph78%29.86 "Hg4 mi
3:35 PM72 °FRain. Broken clouds.8 mph83%29.86 "Hg4 mi
2:35 PM73 °FBroken clouds.9 mph83%29.89 "Hg4 mi
1:35 PM73 °FDrizzle. Broken clouds.7 mph83%29.89 "Hg3 mi
12:35 PM70 °FRain. More clouds than sun.6 mph88%29.92 "Hg2 mi
11:35 AM70 °FDrizzle. More clouds than sun.1 mph94%29.95 "Hg2 mi
10:35 AM68 °FDrizzle. More clouds than sun.5 mph100%29.95 "Hg2 mi
9:35 AM68 °FDrizzle. More clouds than sun.No wind100%29.95 "Hg3 mi
8:35 AM68 °FLight rain. More clouds than sun.3 mph94%29.92 "Hg2 mi
7:35 AM66 °FRain. More clouds than sun.2 mph100%29.92 "Hg1 mi
6:35 AM68 °FRain. More clouds than sun.No wind94%29.89 "Hg1 mi
5:35 AM68 °FFog.No wind94%29.86 "Hg2 mi
4:35 AM68 °FLight rain. Partly cloudy.No wind100%29.86 "Hg3 mi
3:35 AM68 °FPartly cloudy.No wind94%29.86 "Hg4 mi
2:35 AM68 °FPartly cloudy.5 mph94%29.86 "Hg4 mi
1:35 AM68 °FPartly cloudy.No wind94%29.89 "Hg4 mi
12:35 AM68 °FPartly cloudy.No wind94%29.89 "Hg4 mi
11:35 PM
Fri, Jul 31
68 °FPartly cloudy.No wind94%29.89 "Hg4 mi
10:35 PM68 °FPartly cloudy.No wind94%29.92 "Hg4 mi
9:35 PM68 °FPartly cloudy.No wind94%29.89 "Hg4 mi
8:35 PM68 °FPartly cloudy.3 mph94%29.89 "Hg4 mi
7:35 PM68 °FBroken clouds.3 mph94%29.86 "Hg4 mi
6:35 PM70 °FBroken clouds.3 mph88%29.83 "Hg4 mi
5:35 PM70 °FBroken clouds.6 mph88%29.83 "Hg3 mi
Weather by CustomWeather, © 2015

See weather overviewHow to use our weather pages